Regional Weather Roundup
Issued by NWS Green Bay, WI

Home | Current Version | Previous Version | Graphics & Text | Print | Product List | Glossary Off
Versions: 1 2 3 4 5 6 7 8 9 10 11 12 13 14 15 16 17 18 19 20 21 22 23 24 25 26 27 28 29 30 31 32 33 34 35 36 37 38 39 40 41 42 43 44 45 46 47 48 49 50

630
ASUS43 KGRB 172111
RWRGRB

NORTH-CENTRAL AND NORTHEAST WISCONSIN REGIONAL WEATHER ROUNDUP
NATIONAL WEATHER SERVICE GREEN BAY WI
400 PM CDT TUE OCT 17 2017

WIZ005-009-010>012-018-019-172200-
NORTH CENTRAL WISCONSIN

CITY           SKY/WX    TMP DP  RH WIND       PRES   REMARKS
IRONWOOD       SUNNY     69  38  32 SW12      29.93F
MANITOWISH WTR SUNNY     68  40  35 SW7       29.95F
ARBOR VITAE    SUNNY     69  39  33 SW5       29.96S
EAGLE RIVER    SUNNY     66  34  29 SW6       29.97S
LAND O LAKES   SUNNY     68  36  30 S5        29.98F
RHINELANDER    SUNNY     69  42  37 S8        29.98F
PHILLIPS       CLOUDY    68  43  40 SW8       29.96S
ANTIGO         MOSUNNY   65  45  49 SW6       30.00S
TOMAHAWK       SUNNY     67  41  37 SW3       29.98S
MERRILL        CLOUDY    68  46  44 SW5       29.99S
$$

WIZ013-073-172200-
NORTHEAST WISCONSIN

CITY           SKY/WX    TMP DP  RH WIND       PRES   REMARKS
IRON MOUNTAIN  SUNNY     71  32  23 CALM      29.96S
MARINETTE      NOT AVBL
OCONTO         MOSUNNY   67  46  46 SW5       29.99S
$$

WIZ017-030-035>037-045-172200-
CENTRAL WISCONSIN

CITY           SKY/WX    TMP DP  RH WIND       PRES   REMARKS
MEDFORD        CLOUDY    67  45  44 S9        29.98S
WAUSAU         CLOUDY    68  44  42 S10       29.97F
MOSINEE        MOSUNNY   70  45  40 S10       30.00F
MARSHFIELD     SUNNY     69  44  40 SW8       29.98F
WISC RAPIDS    SUNNY     69  47  45 SW10      30.01F
STEVENS POINT  SUNNY     67  45  44 S8        30.00F
WAUPACA        SUNNY     71  45  39 S9        30.00F
SHAWANO        MOSUNNY   71  45  39 SW3       29.99S
CLINTONVILLE   SUNNY     70  45  40 SW7       30.00S
WAUTOMA        SUNNY     70  46  42 SW14      30.01F
$$

WIZ038-039-048-051-172200-
FOX VALLEY

CITY           SKY/WX    TMP DP  RH WIND       PRES   REMARKS
NWS GREEN BAY  CLOUDY    67  50  54 S10       30.00F
APPLETON       MOSUNNY   66  43  42 S9        30.00F
OSHKOSH        SUNNY     69  46  43 S9        30.01F
FOND DU LAC    SUNNY     70  43  37 SW9       30.03F
$$

WIZ022-050-052-172200-
EAST CENTRAL WISCONSIN

CITY           SKY/WX    TMP DP  RH WIND       PRES   REMARKS
EPHRAIM        FAIR      65  44  46 SW3       29.99S
WASHINGTON ISL FAIR      61  50  68 S9        29.99S
STURGEON BAY   CLOUDY    65  46  50 W5        30.01S
MANITOWOC      SUNNY     68  46  45 SW12      30.02F
SHEBOYGAN      SUNNY     69  48  47 SW9       30.03F
$$

LMZ563-521-522-541>543-172200-
LAKESHORE

STATION/POSITION TIME  TEMP    WIND        PRES    VSBY  WAVE
                       AIR SEA DIR/SP/G                  HT/PER
                 (UTC) (F)     (DEG/KT/KT) (MB)    (MI)  (FT/S)
SHEBOYGAN LKSHOR 2100   63     170/  8/  9 1016.4F
KEWAUNEE LKSHORE 2042   60     170/  9/ 11 1015.5F
NORTHPORT PIER   2040   62     150/  7/ 10 1015.6S
N MID LAKE BUOY  2050   59 59  200/ 16/ 17 1016.4R         4/ 6
S GREEN BAY BUOY 2030   62 58  200/ 10/ 12 1015.7F
MENOMINEE LKSHOR 2036   63     180/  6/  8 1015.2S
$$




USA.gov is the U.S. government's official web portal to all federal, state and local government web resources and services.